Guymon, OK

7:50 AM CDT on May 30, 2017 (GMT -0500)
Guymon Municipal

Weather History for KGUY - December, 2013

Change the Weather History Date:

Wednesday, December 25, 2013

  Actual Average Record
Temperature  
Mean Temperature 37 °F 34 °F  
Max Temperature 48 °F 47 °F 73 °F (2005)
Min Temperature 26 °F 21 °F -1 °F (2002)
Degree Days  
Heating Degree Days 28 31  
Month to date heating degree days 796 739  
Since 1 July heating degree days 1682 1630  
Cooling Degree Days 0 0  
Month to date cooling degree days 0 0  
Year to date cooling degree days 1846 1482  
Moisture  
Dew Point 23 °F    
Average Humidity 57    
Maximum Humidity 85    
Minimum Humidity 28    
Precipitation  
Precipitation 0.00 in 0.02 in 0.14 in (2016)
Month to date precipitation 0.31 0.53  
Year to date precipitation 15.31 19.19  
Snow  
Snow 0.00 in - - ()
Month to date snowfall 3.5  
Since 1 July snowfall 7.2  
Snow Depth 1.00 in    
Sea Level Pressure  
Sea Level Pressure 30.38 in    
Wind  
Wind Speed 9 mph (NNW)    
Max Wind Speed 15 mph    
Max Gust Speed 20 mph    
Visibility 10 miles    
Events      
T = Trace of Precipitation, MM = Missing Value Source: NWS Daily Summary

Daily Weather History Graph

Daily Weather History Graph

Search for Another Location

Airport or City:

Trip Planner

Search our weather history database for the weather conditions in past years. The results will help you decide how hot, cold, wet, or windy it might be!

Date:

Astronomy

Dec. 25, 2013 Rise Set
Actual Time 7:56 AM CST 5:36 PM CST
Civil Twilight 7:27 AM CST 6:05 PM CST
Nautical Twilight 6:55 AM CST 6:37 PM CST
Astronomical Twilight 6:23 AM CST 7:08 PM CST
Moon 12:35 AM CST (12/25) 12:33 PM CST (12/25)
Length of Visible Light 10h 37m
Length of Day
9h 39m
Waning Gibbous, 48% of the Moon is Illuminated
Dec 25
Waning Gibbous
Jan 1
New
Jan 7
First Quarter
Jan 15
Full
Jan 23
Last Quarter

Hourly Weather History & Observations

Time (CST) Temp. Windchill Dew Point Humidity Pressure Visibility Wind Dir Wind Speed Gust Speed Precip Events Conditions
12:53 AM 37.9 °F 31.5 °F 33.1 °F 83% 30.28 in 10.0 mi North 9.2 mph - N/A   Overcast
1:53 AM 37.0 °F 29.8 °F 32.0 °F 82% 30.29 in 10.0 mi North 10.4 mph - N/A   Overcast
2:53 AM 37.0 °F 29.3 °F 30.0 °F 76% 30.30 in 10.0 mi North 11.5 mph - N/A   Overcast
3:53 AM 35.1 °F 27.9 °F 28.9 °F 78% 30.31 in 10.0 mi North 9.2 mph - N/A   Overcast
4:53 AM 30.9 °F 24.3 °F 27.0 °F 85% 30.32 in 10.0 mi North 6.9 mph - N/A   Partly Cloudy
5:53 AM 28.9 °F 20.4 °F 25.0 °F 85% 30.35 in 10.0 mi NNW 9.2 mph - N/A   Clear
6:53 AM 28.9 °F 19.8 °F 24.1 °F 82% 30.38 in 10.0 mi NNW 10.4 mph - N/A   Clear
7:53 AM 28.0 °F 18.1 °F 23.0 °F 81% 30.40 in 10.0 mi NNW 11.5 mph - N/A   Clear
8:53 AM 30.0 °F 21.1 °F 24.1 °F 79% 30.42 in 10.0 mi NNW 10.4 mph - N/A   Clear
9:53 AM 34.0 °F 27.2 °F 25.0 °F 70% 30.44 in 10.0 mi NNW 8.1 mph - N/A   Clear
10:53 AM 39.0 °F 31.8 °F 27.0 °F 62% 30.45 in 10.0 mi NNW 11.5 mph - N/A   Clear
11:53 AM 42.1 °F 35.7 °F 27.0 °F 55% 30.44 in 10.0 mi North 11.5 mph - N/A   Clear
12:53 PM 45.0 °F 40.1 °F 25.0 °F 46% 30.40 in 10.0 mi North 9.2 mph - N/A   Clear
1:53 PM 46.9 °F - 19.9 °F 34% 30.38 in 10.0 mi North 12.7 mph - N/A   Clear
2:53 PM 46.9 °F - 18.0 °F 32% 30.36 in 10.0 mi North 12.7 mph - N/A   Clear
3:53 PM 46.9 °F - 16.0 °F 29% 30.37 in 10.0 mi North 10.4 mph - N/A   Clear
4:53 PM 45.0 °F 41.8 °F 19.0 °F 36% 30.38 in 10.0 mi North 5.8 mph - N/A   Clear
5:53 PM 42.1 °F - 17.1 °F 37% 30.39 in 10.0 mi Calm Calm - N/A   Clear
6:53 PM 39.0 °F - 17.1 °F 41% 30.41 in 10.0 mi Calm Calm - N/A   Clear
7:53 PM 32.0 °F 27.5 °F 19.0 °F 59% 30.43 in 10.0 mi SW 4.6 mph - N/A   Clear
8:53 PM 28.0 °F 21.7 °F 19.9 °F 72% 30.44 in 10.0 mi SW 5.8 mph - N/A   Clear
9:53 PM 28.9 °F 21.1 °F 19.9 °F 69% 30.42 in 10.0 mi SW 8.1 mph - N/A   Clear
10:53 PM 30.0 °F 21.7 °F 23.0 °F 75% 30.40 in 10.0 mi WSW 9.2 mph - N/A   Clear
11:53 PM 30.9 °F 20.7 °F 23.0 °F 72% 30.38 in 10.0 mi WSW 13.8 mph - N/A   Clear